RH
82 72 70 69 66 63 59 53 49 44 36 30 30 37 38 36 39 49 64 65 53 37 37 32 18 23 52 97 111 110 102 89 95 86 66 56 66 77 78 66 54 66 77 83 89 92 94 94 92 85 79 76 75 71 65 63 63 68 75 82 88 89 86 82 75 73 76 80 87 91 92 88 82 81 83 85 84 79 73 80 90 88 85 95 106 98 81 74 69 52 32 38 63 74 59 44 53
91 88 84 80 77 74 71 66 61 57 45 36 35 38 35 33 36 42 43 36 29 21 22 19 23 38 52 80 99 100 94 93 94 69 51 54 64 70 68 62 60 71 75 78 81 83 85 85 84 79 77 76 76 72 68 69 74 81 84 86 85 82 79 78 75 79 86 94 101 97 90 82 81 87 91 90 83 77 81 94 99 83 75 90 104 93 79 74 58 37 32 50 71 67 48 51 63
65 76 83 84 84 82 79 75 72 69 59 45 41 40 34 33 34 33 29 26 24 20 22 31 51 69 69 74 74 72 73 74 74 62 62 67 66 61 57 58 68 78 76 77 78 80 80 79 79 76 75 74 74 74 77 82 87 91 87 83 79 77 76 79 84 91 98 102 100 89 84 84 91 97 98 88 76 82 93 97 88 70 68 79 84 83 82 68 44 29 37 60 72 56 45 61 64
41 47 58 67 73 75 73 72 69 69 70 60 49 44 39 36 32 29 27 26 25 24 31 50 78 89 81 70 50 45 51 54 58 62 72 74 68 59 51 55 70 80 83 87 86 86 84 81 80 76 76 76 80 86 94 97 95 90 83 78 76 77 79 86 92 94 98 100 92 86 88 94 101 100 97 86 75 86 95 88 75 68 70 67 69 83 81 59 37 28 44 70 67 48 51 67 62
36 43 52 63 72 75 74 73 69 67 73 73 63 55 47 40 35 32 29 29 29 28 31 40 62 82 88 77 49 37 36 36 45 56 66 66 63 58 55 62 74 82 89 95 94 91 86 83 81 78 81 85 92 96 97 96 90 83 78 79 80 81 86 90 93 95 98 97 91 92 97 100 105 101 100 98 88 86 87 79 70 72 75 73 81 89 75 53 36 35 58 74 59 48 59 69 64
30 37 47 64 80 90 93 89 84 81 81 79 73 65 57 49 41 37 34 33 33 32 31 29 35 57 82 80 52 38 39 38 42 49 53 51 56 63 64 69 77 83 91 97 95 88 82 81 82 83 90 96 97 94 91 89 86 84 85 86 87 88 91 93 96 100 101 98 97 100 101 100 104 103 104 106 97 89 87 78 68 66 64 74 89 86 70 51 40 53 71 66 54 53 61 68 63
23 26 31 41 56 76 95 101 100 97 95 92 86 75 66 57 48 44 42 40 39 36 37 35 33 45 60 54 41 44 51 52 52 54 51 51 62 72 75 79 83 85 90 95 91 84 83 86 90 95 100 101 99 95 95 95 94 95 95 93 94 95 96 100 101 101 102 99 99 102 102 101 96 88 88 93 92 91 88 78 74 74 69 81 94 87 68 50 55 72 69 57 55 56 58 60 55
16 19 21 24 28 40 59 80 96 101 102 101 98 88 78 69 60 54 52 52 51 48 47 47 43 43 43 37 40 49 55 58 60 61 59 65 77 82 83 83 85 86 91 95 91 88 92 96 101 106 106 102 98 96 99 102 102 101 99 98 99 98 100 103 99 97 98 96 95 100 103 97 79 69 76 86 93 94 84 72 70 69 71 90 97 80 61 57 70 71 60 57 58 57 52 47 47
13 13 14 16 18 20 25 40 62 81 94 101 102 99 93 85 78 72 68 67 66 65 62 60 50 42 45 45 46 49 54 59 60 62 64 70 75 76 78 82 88 90 96 101 100 99 101 103 105 107 105 101 96 97 100 102 103 102 100 100 100 100 100 101 101 96 90 93 90 88 88 80 70 77 91 97 99 90 74 70 68 62 70 92 88 67 62 67 68 61 59 59 55 52 45 41 48
12 12 12 12 13 14 16 19 28 41 59 76 89 98 101 97 95 93 88 84 83 84 78 70 62 60 69 67 58 57 59 60 59 60 62 65 69 76 86 97 102 98 100 104 102 101 103 103 103 105 103 98 96 99 100 100 100 100 100 100 100 100 100 102 102 93 90 92 74 61 70 76 84 98 102 99 92 76 66 69 72 76 87 88 74 66 69 67 61 60 59 53 51 47 43 47 54
13 12 11 12 11 11 12 13 15 18 26 39 53 67 79 87 95 100 101 101 101 98 88 81 79 84 96 95 86 82 75 72 73 72 74 82 92 97 101 108 106 101 102 103 100 102 104 102 102 103 99 97 98 99 99 100 99 100 102 101 101 100 101 102 96 91 91 84 65 66 86 94 97 100 95 88 78 69 68 71 77 90 91 75 69 71 69 64 62 60 54 51 49 45 50 59 64
15 14 13 12 12 12 11 11 12 13 14 20 27 32 41 53 64 75 87 96 98 95 90 90 95 97 105 108 103 98 93 94 94 91 90 96 105 104 102 103 101 104 104 102 100 101 103 101 101 100 99 100 99 99 101 99 97 100 100 98 101 98 95 94 90 84 71 68 80 92 98 96 91 89 86 78 72 73 79 84 91 91 76 68 74 72 65 63 60 53 51 50 47 51 64 71 73
17 15 15 14 13 12 12 12 11 12 12 13 16 16 20 27 35 43 53 62 67 70 70 71 76 80 89 101 105 104 104 104 101 99 97 96 101 99 99 98 98 103 101 98 100 100 102 102 102 99 99 101 99 98 95 87 83 87 89 98 98 86 85 88 83 65 53 70 96 101 91 85 82 82 82 74 71 78 88 94 93 77 66 75 78 66 62 60 53 50 48 49 56 66 68 63 59
19 18 17 16 15 14 14 13 13 13 13 12 12 11 12 15 21 27 32 37 41 45 47 47 50 54 64 78 88 89 91 97 98 102 104 101 102 101 102 102 102 104 100 99 101 97 89 82 79 76 77 81 79 75 75 70 65 66 72 90 88 73 74 74 66 57 66 91 101 99 88 77 75 78 80 78 79 86 96 99 87 70 69 81 75 64 62 58 53 51 53 63 75 74 62 52 47
20 19 19 18 17 16 16 15 15 15 15 14 12 12 11 11 13 15 20 24 26 29 33 36 37 39 44 50 54 57 63 72 76 82 88 90 90 88 86 81 84 96 95 86 79 71 55 45 45 47 51 53 50 50 57 56 50 52 60 79 79 62 57 57 62 70 86 102 101 98 86 79 82 81 82 87 92 96 102 97 78 68 78 85 78 68 63 59 57 60 72 83 84 75 64 53 47
19 19 19 19 19 18 18 18 17 17 17 15 13 12 11 11 11 11 14 16 16 18 20 23 26 27 29 31 33 36 39 41 44 48 52 53 51 49 47 43 46 59 59 46 40 36 29 37 48 48 46 43 44 45 43 42 42 52 63 71 65 50 55 72 85 90 98 103 101 98 88 86 88 81 82 94 100 99 97 82 68 78 92 91 79 69 70 74 74 81 91 89 88 82 69 56 50
19 19 19 19 20 20 20 20 19 19 18 16 15 13 12 11 12 13 13 14 13 12 13 14 16 17 18 19 20 22 22 23 26 27 27 26 25 23 22 22 22 25 26 24 27 27 27 45 60 55 48 43 44 44 40 41 44 53 60 55 49 57 78 97 101 99 99 95 93 92 84 82 83 82 88 100 103 94 84 64 67 91 97 89 80 78 88 95 92 97 94 84 92 91 72 59 58
21 20 21 21 22 22 22 21 20 20 19 17 15 14 13 13 15 16 16 16 14 11 12 11 12 12 12 13 13 14 15 16 17 18 19 17 16 15 14 17 17 17 20 25 33 45 53 58 67 66 56 48 46 48 43 39 39 44 51 47 48 62 75 88 95 92 88 86 87 84 79 84 90 97 101 104 99 81 63 51 69 94 96 94 89 92 100 100 99 100 89 82 96 96 74 61 66
23 22 22 23 23 23 23 22 21 20 19 18 16 16 16 16 17 18 19 18 15 13 13 13 13 12 11 11 11 12 12 12 13 13 14 12 12 12 12 13 12 13 14 18 25 43 57 59 70 74 61 54 52 49 40 37 39 40 41 39 43 50 54 69 79 77 83 88 88 88 91 99 105 108 105 98 82 58 46 56 77 88 98 104 97 98 102 98 100 100 90 86 100 100 77 66 72
21 22 22 23 23 23 23 22 22 21 20 18 17 18 18 19 19 18 18 18 18 17 17 17 16 14 13 13 12 13 12 12 12 11 11 11 11 9 10 11 11 12 11 12 17 28 38 43 55 56 47 45 46 44 40 39 40 37 40 46 47 43 47 67 78 77 86 94 96 103 106 103 103 101 93 79 57 42 47 71 84 80 92 106 100 99 101 99 101 99 97 95 101 101 81 72 75
18 19 19 20 21 21 21 21 21 20 19 18 18 18 19 20 21 19 18 18 19 19 19 18 17 17 15 15 15 15 14 14 13 13 13 13 12 12 15 16 15 19 21 23 25 26 31 41 48 43 39 39 43 45 41 38 40 42 47 55 54 43 55 82 93 92 93 97 98 97 94 88 85 81 71 54 43 48 57 69 79 78 89 102 100 100 102 100 100 99 100 99 100 100 84 75 80
16 17 16 17 17 18 19 19 19 19 18 18 19 19 19 20 21 19 18 18 18 17 18 18 17 17 17 17 17 16 17 16 15 16 15 15 15 15 17 20 27 31 34 36 36 42 48 51 51 50 53 53 52 48 43 44 44 47 49 52 53 46 72 101 102 101 100 100 99 89 82 75 66 59 56 49 54 70 70 64 68 72 82 95 100 102 104 101 99 99 99 99 99 97 84 74 84
16 15 15 15 15 15 16 16 17 17 17 18 18 19 19 19 18 18 18 18 17 17 17 17 17 17 16 17 16 16 16 15 16 16 18 21 21 21 21 25 37 37 32 35 38 48 58 55 58 73 80 69 60 50 55 64 54 59 73 75 72 63 83 105 100 102 101 100 103 99 93 88 77 67 68 69 72 82 85 81 75 77 84 92 100 102 104 103 99 100 101 99 97 95 83 73 83
16 15 15 14 14 14 13 14 14 15 16 16 17 17 17 17 17 18 18 17 17 17 17 17 17 16 16 15 15 16 14 15 15 14 19 24 25 24 22 26 40 41 37 44 47 48 57 66 81 96 87 67 58 47 50 64 55 62 84 90 89 84 92 102 100 103 102 100 103 101 94 93 93 88 90 92 86 86 93 99 92 88 87 87 97 102 102 105 100 100 103 101 99 95 84 76 77
16 15 14 14 13 13 12 12 13 13 13 14 15 16 16 16 17 17 16 16 16 16 17 16 16 15 15 14 14 14 13 14 13 13 16 17 19 17 27 54 67 60 51 49 52 54 65 85 99 95 72 54 51 44 42 51 51 61 81 93 97 94 98 102 101 99 89 90 102 102 92 90 95 96 97 100 99 95 92 93 89 81 74 71 82 93 99 106 103 101 102 102 101 92 80 74 73
14 14 13 13 12 12 12 12 12 11 12 13 14 14 14 15 16 16 16 16 16 16 16 15 16 15 15 15 14 15 13 14 12 13 13 11 16 11 31 83 98 80 68 64 64 67 72 79 82 69 53 48 52 54 52 46 53 78 96 101 102 95 99 99 90 78 54 65 100 101 92 95 97 98 99 100 97 91 86 82 79 75 71 70 76 87 96 101 102 102 103 101 98 88 73 64 71
13 12 12 12 11 11 11 11 11 11 12 12 13 12 13 14 14 14 15 15 16 16 16 15 15 14 15 15 14 14 13 14 13 13 14 12 15 9 21 74 106 94 81 79 73 64 59 54 54 51 48 53 58 61 63 55 55 84 104 105 104 96 96 91 79 70 45 58 103 104 96 102 100 100 101 102 98 90 91 89 87 87 85 85 89 95 98 101 101 100 99 94 90 80 62 58 78
11 11 11 11 10 11 10 11 11 11 11 11 12 12 12 13 12 13 13 14 15 14 15 15 15 15 15 14 14 14 13 14 14 13 15 13 13 13 11 41 82 80 60 60 57 44 39 40 46 53 54 54 59 60 67 80 79 86 100 102 103 99 93 81 74 76 56 60 94 99 100 103 98 101 100 99 101 98 99 98 98 98 97 97 99 102 100 101 100 93 90 84 78 65 52 66 92
11 11 11 11 11 11 11 11 11 11 12 12 12 12 12 13 12 13 13 13 13 13 14 14 14 15 14 15 14 14 14 13 14 13 14 14 14 15 12 24 49 47 34 40 47 41 39 48 57 62 58 52 61 63 61 82 97 97 101 101 102 98 87 69 61 66 54 55 82 92 99 103 97 99 100 99 100 101 101 100 100 100 102 101 101 103 98 97 95 88 82 72 63 50 53 85 101
12 13 13 13 13 14 14 13 13 13 14 13 13 14 14 14 14 14 13 13 12 12 13 14 14 15 14 15 14 14 15 13 14 14 13 15 14 14 17 22 26 27 26 28 33 39 45 56 61 56 47 39 49 62 64 74 80 81 83 80 74 67 61 55 48 46 40 44 62 74 85 97 101 98 100 103 99 100 102 101 101 100 102 102 100 103 99 95 89 80 70 55 46 43 58 92 102
16 17 16 16 17 17 18 17 16 16 17 17 15 16 17 17 17 16 15 14 13 12 13 14 14 15 15 15 15 15 15 15 14 14 13 14 15 16 18 22 22 22 25 28 36 49 55 56 53 45 40 42 49 58 72 77 66 60 57 48 40 33 35 40 36 31 34 41 48 62 78 89 100 102 100 103 100 99 102 101 102 101 102 104 102 101 99 90 77 64 52 40 38 46 64 91 100
19 19 18 19 19 20 20 19 19 18 20 20 18 20 22 21 21 20 19 17 14 13 14 15 15 16 18 17 17 17 16 16 14 14 14 14 15 16 17 23 23 20 27 38 48 54 53 51 52 52 48 51 54 54 66 73 60 49 42 35 32 29 30 30 29 28 31 38 41 57 84 95 99 103 102 100 100 99 101 100 101 103 103 104 102 99 91 78 65 50 34 31 38 51 74 96 101
19 19 19 19 19 20 20 20 20 21 22 23 21 23 26 25 24 24 23 20 17 16 16 16 17 18 21 22 20 19 19 17 15 15 15 16 18 18 19 21 21 25 32 34 38 45 52 58 58 57 57 58 61 59 59 57 49 44 41 38 33 29 28 25 28 30 27 34 40 42 56 70 77 89 99 100 99 100 100 100 100 103 102 101 98 91 80 66 53 38 27 32 43 59 81 99 103
19 19 18 19 19 19 20 20 21 21 22 23 23 24 26 28 27 26 25 23 21 20 18 18 20 23 25 25 22 20 21 18 17 17 17 20 20 21 22 23 26 26 27 34 51 65 65 62 62 64 67 70 70 60 48 44 44 44 43 36 29 29 30 28 31 33 29 33 46 46 41 53 71 87 99 100 99 99 99 100 99 100 99 95 88 77 66 55 43 31 28 34 50 76 89 93 101
19 18 18 18 17 18 19 20 20 20 21 21 22 23 25 28 28 27 26 25 23 21 23 22 23 27 27 26 23 21 21 19 19 20 21 24 22 23 24 24 27 26 42 76 93 87 70 61 71 78 73 71 73 61 49 45 39 35 33 27 28 31 29 30 32 33 35 34 41 46 44 65 92 98 99 99 99 100 99 100 99 98 96 87 76 66 56 47 38 29 29 34 55 90 98 94 100
19 18 18 17 17 18 18 20 20 19 20 21 21 22 25 28 26 26 27 26 24 24 29 28 24 28 28 27 26 23 21 21 23 25 25 25 23 25 26 27 31 33 51 82 91 87 88 89 92 91 84 86 93 87 69 46 33 32 33 31 35 38 35 36 37 38 43 40 39 43 50 78 102 101 99 100 99 100 100 100 100 96 91 79 67 58 50 42 34 27 28 32 58 95 102 98 100
19 18 18 18 18 18 19 21 21 19 19 21 22 21 24 26 25 25 26 27 26 26 31 31 28 30 30 29 28 26 25 26 28 28 26 25 25 27 29 29 30 33 46 69 88 95 98 102 100 96 98 98 99 104 88 58 44 44 40 37 42 52 55 51 47 43 43 41 39 47 66 92 102 99 100 101 99 101 101 99 98 92 82 71 61 54 47 39 29 27 28 30 61 100 102 98 101
19 18 19 20 20 21 21 22 22 20 19 21 22 21 22 25 25 24 26 27 28 29 32 33 32 33 33 31 31 32 31 31 31 28 27 26 28 29 33 36 38 53 76 92 101 97 93 100 101 98 102 100 97 103 100 84 70 55 44 44 48 59 68 65 56 46 43 43 40 54 83 100 101 101 101 100 100 100 100 99 95 85 73 65 59 51 42 34 28 29 31 31 58 98 102 98 101
19 19 20 21 22 21 22 23 22 21 19 20 21 21 21 23 24 24 26 27 28 30 32 34 33 34 37 33 34 37 33 33 31 29 31 26 27 37 50 64 77 89 99 102 99 95 99 103 100 99 102 101 100 100 99 100 92 70 50 45 48 57 61 58 53 48 47 47 47 66 96 102 98 100 101 99 99 100 100 97 86 77 72 67 58 47 37 33 31 32 36 35 52 88 102 99 99
19 21 21 21 22 22 22 22 22 21 19 19 20 20 21 23 24 25 26 26 27 30 32 32 32 34 37 35 38 40 35 35 34 33 31 22 37 69 84 91 101 102 97 94 95 98 103 100 97 101 102 98 99 99 99 101 100 91 75 63 61 62 58 54 53 52 50 48 48 64 90 103 101 100 101 100 101 103 100 90 81 80 77 64 50 41 36 36 36 36 41 43 53 82 101 100 98
21 22 22 22 22 21 23 22 22 21 18 18 18 19 22 24 25 24 24 25 25 29 33 32 30 32 35 36 39 40 39 40 39 37 28 27 64 99 102 98 98 98 99 97 95 97 100 100 99 99 100 100 98 98 100 99 100 101 96 90 81 72 67 63 63 62 59 56 50 48 64 88 98 98 98 100 104 106 96 86 83 81 68 52 41 39 41 43 41 39 44 51 63 85 99 101 100
21 22 22 22 22 22 23 23 23 21 18 18 19 20 22 24 26 23 22 24 25 28 34 34 29 31 33 34 39 41 43 42 39 38 27 41 89 105 94 98 98 97 103 102 100 100 98 98 101 100 100 102 100 99 101 101 101 100 99 100 95 85 74 64 61 62 66 72 72 65 65 78 89 91 92 100 105 98 87 83 81 70 54 42 39 42 47 49 47 43 43 49 65 89 101 100 101
21 21 22 22 22 22 23 23 23 22 19 19 20 21 21 22 24 23 23 26 26 26 34 36 28 29 31 32 38 40 42 39 35 38 28 39 86 102 92 98 100 98 102 103 103 101 98 99 99 100 101 101 101 101 101 101 102 101 99 100 100 97 89 80 71 63 65 77 89 93 93 94 96 95 97 102 98 87 84 83 76 62 48 42 42 47 51 52 50 48 47 48 56 79 99 102 101
21 21 22 22 22 22 23 23 22 21 21 21 21 21 20 22 23 23 24 25 24 24 32 34 27 29 31 30 35 37 38 35 30 36 30 29 65 96 99 98 99 99 100 102 103 100 99 101 99 99 101 101 101 100 100 102 102 101 100 100 101 100 99 97 87 72 67 77 90 97 98 99 99 99 101 100 94 88 88 79 67 57 47 45 48 50 51 50 50 49 50 52 52 62 84 100 103
21 21 21 22 22 22 22 22 22 22 21 21 22 21 20 22 24 24 24 24 24 24 28 30 26 27 29 29 32 33 32 31 28 32 28 27 55 86 98 100 100 100 101 101 100 99 99 99 100 101 100 100 101 101 100 100 101 100 100 100 99 99 100 101 94 80 73 81 96 103 101 99 98 99 98 97 97 94 84 68 55 50 46 46 47 46 46 47 50 52 51 55 59 63 74 87 96
21 21 22 23 23 24 24 23 24 22 22 23 24 24 23 23 25 25 24 24 25 25 25 26 25 26 28 28 28 29 28 25 27 27 23 40 75 94 100 103 100 98 99 99 100 101 99 98 100 100 99 100 100 101 99 99 100 99 99 100 100 99 99 101 98 89 85 89 95 97 93 90 92 95 93 95 98 89 72 54 45 44 43 43 43 41 43 46 49 54 56 59 67 78 86 90 93
22 23 24 25 25 26 26 25 25 24 26 28 27 25 25 24 26 26 24 25 25 24 24 23 24 25 26 27 25 26 24 22 25 22 28 66 100 103 102 104 102 99 98 99 100 102 101 99 100 99 98 99 98 100 100 99 100 99 100 100 100 100 100 100 98 94 97 97 92 89 87 88 92 92 93 97 94 80 59 40 37 43 43 40 41 41 42 46 49 51 56 60 64 73 84 91 95
23 24 25 25 26 27 27 26 26 26 28 30 28 27 27 27 27 25 24 26 26 25 24 23 26 26 25 26 24 23 22 23 26 20 38 88 109 103 106 105 98 97 97 100 100 103 104 97 96 99 99 99 100 101 101 101 101 100 101 100 99 101 100 100 100 99 101 96 89 91 94 97 97 91 91 89 81 72 52 35 38 44 42 41 42 42 43 46 48 50 53 57 60 63 66 71 77
23 25 26 26 27 27 27 28 27 29 30 30 28 27 27 28 27 25 25 27 26 25 25 24 25 26 25 24 21 23 25 25 26 19 41 92 105 97 104 101 94 96 98 100 100 102 103 94 95 102 101 101 101 101 101 100 100 99 100 101 99 100 100 100 101 101 102 95 86 86 90 97 98 93 90 84 80 76 53 35 40 42 42 45 43 44 45 44 46 49 51 54 57 60 60 61 63
23 26 26 26 27 28 29 29 29 30 31 31 30 27 27 28 26 25 26 27 27 25 25 26 27 25 23 23 22 26 27 25 27 21 35 82 105 101 102 98 95 99 98 100 102 103 102 97 99 103 101 101 101 101 101 99 99 99 100 101 100 100 100 100 101 100 102 101 92 82 78 83 89 90 89 84 85 82 60 42 39 36 37 41 41 43 43 42 43 43 45 48 49 52 54 54 56
23 25 26 27 27 29 30 30 30 31 31 31 30 27 27 26 26 28 28 28 29 27 26 29 33 36 38 37 31 29 28 25 28 26 27 57 87 95 99 99 97 99 99 102 106 105 102 99 100 101 100 100 100 99 100 99 99 100 99 100 103 104 100 98 100 101 101 103 101 93 85 84 87 92 94 90 87 84 76 64 51 39 36 35 35 38 38 38 41 40 40 42 42 43 44 44 45
25 25 26 29 30 30 31 30 30 30 30 31 29 28 29 27 31 34 29 27 28 26 27 32 35 43 52 53 45 39 38 34 32 33 37 50 67 81 91 96 98 99 98 102 105 103 101 100 100 100 99 99 100 100 100 100 100 101 101 100 101 105 103 98 99 100 100 101 102 101 99 97 95 95 98 97 93 90 89 83 70 56 47 40 34 34 35 34 34 36 39 40 41 41 41 41 42
30 29 28 32 33 32 31 31 31 30 30 31 29 29 29 29 34 36 31 29 29 27 31 36 36 38 46 54 61 62 57 56 59 66 79 85 86 90 96 98 99 99 98 101 104 102 101 101 99 99 100 100 101 99 99 102 100 99 100 99 100 103 103 100 98 99 100 100 101 102 101 101 99 98 98 98 97 97 95 91 83 70 58 49 39 33 35 34 31 31 32 35 39 40 40 41 41
32 34 32 32 32 32 32 31 30 30 32 33 32 31 32 32 34 36 35 29 27 32 39 44 45 46 47 50 62 65 56 66 91 101 102 103 101 100 102 102 99 99 100 100 103 104 101 101 100 99 102 103 101 98 98 102 102 100 99 98 99 100 101 102 99 99 100 98 99 102 102 102 100 100 100 99 99 100 98 95 89 78 65 54 43 36 35 36 35 33 30 31 34 36 39 40 41
31 33 32 33 35 35 36 34 30 31 34 34 36 38 36 34 32 37 45 41 37 43 48 53 53 54 55 52 53 49 40 59 96 103 91 91 100 100 100 101 90 86 100 102 98 103 102 101 103 100 101 102 100 100 99 99 100 100 98 98 99 98 99 101 100 99 101 100 100 102 104 104 101 101 101 100 101 101 100 99 93 83 73 61 50 42 38 38 39 39 37 35 33 33 36 38 41
35 35 37 41 42 44 46 45 40 39 42 43 51 53 45 39 34 36 51 63 65 58 48 49 48 44 53 62 57 43 40 69 97 95 87 92 99 96 100 106 81 66 94 107 99 101 103 103 105 100 100 102 101 102 102 99 98 98 99 99 100 99 99 101 101 98 96 96 99 102 106 108 106 104 102 99 100 101 99 97 91 84 78 70 60 51 45 42 42 43 43 43 41 38 36 37 40
41 40 44 46 49 59 69 73 69 64 60 59 62 57 44 40 37 33 48 74 84 68 48 47 44 38 53 79 79 52 46 82 104 93 90 96 100 100 101 100 72 58 90 110 102 103 103 101 102 99 100 102 101 102 101 100 97 97 101 101 98 100 100 99 100 97 90 85 88 95 101 108 110 107 105 102 101 101 98 94 90 87 84 78 70 62 56 51 47 48 50 51 52 49 45 44 43
43 42 49 52 53 59 68 80 89 89 82 77 74 61 42 43 54 53 54 67 75 65 55 56 53 50 64 90 99 72 51 76 100 100 102 104 103 99 86 74 67 73 98 107 100 101 101 99 99 98 99 101 100 99 99 101 98 95 99 101 99 101 101 98 97 95 87 77 80 90 95 100 106 107 108 107 103 101 99 97 97 97 93 87 81 75 71 66 61 58 58 60 61 60 60 59 55
Wind_Speed
78 78 78 78 78 77 75 74 72 71 70 70 72 75 77 77 77 77 78 77 74 70 69 67 63 65 68 70 70 70 70 67 69 68 64 62 64 66 67 68 66 67 69 70 71 71 72 73 73 74 74 74 75 75 74 74 73 74 75 75 75 77 78 79 79 80 81 81 81 81 81 84 86 85 83 80 79 80 79 76 70 66 68 70 65 63 65 67 65 65 67 66 63 61 63 64 61
79 79 80 80 80 79 77 76 75 73 73 73 76 79 78 78 79 80 80 77 72 69 69 69 69 73 73 72 72 72 71 71 72 70 67 66 68 69 70 70 69 70 72 73 73 74 74 75 75 75 75 76 76 76 75 75 75 77 77 78 78 79 80 80 80 82 82 81 81 82 84 85 84 81 79 77 77 77 74 69 65 66 69 67 64 64 66 65 64 67 68 65 61 61 63 61 56
79 80 80 81 81 81 79 78 77 76 75 78 81 82 80 80 81 82 80 76 70 68 70 73 75 78 77 76 74 73 73 72 73 71 69 71 71 71 72 71 72 74 75 75 75 76 76 77 77 77 77 77 77 77 77 77 79 79 79 79 80 81 80 81 82 82 81 81 83 84 85 83 79 77 76 75 75 72 68 65 65 68 68 66 65 65 64 63 65 69 68 63 60 62 61 56 54
80 80 80 81 81 81 80 79 79 78 78 82 85 83 82 82 82 82 80 75 70 70 74 76 78 80 79 79 76 73 74 73 73 72 72 74 74 74 74 74 75 76 76 77 77 78 78 78 78 78 78 78 78 78 78 80 80 80 80 81 81 81 81 82 83 82 82 84 85 84 80 76 75 75 73 73 72 67 65 64 66 67 66 66 65 63 62 63 68 71 67 62 61 61 57 53 52
80 80 80 81 81 82 81 81 81 80 81 85 87 85 85 85 83 82 79 76 73 74 76 77 78 80 81 81 78 76 75 73 73 74 75 76 76 76 76 76 77 77 78 78 79 79 79 79 79 79 78 78 78 79 80 81 81 81 82 82 82 82 82 84 85 85 86 86 83 79 74 72 73 72 70 70 69 67 66 66 66 65 65 65 63 61 61 65 71 70 64 61 61 58 53 51 49
80 80 81 81 82 82 82 82 82 82 83 86 87 86 87 87 84 81 80 79 78 78 79 79 79 80 82 82 80 78 78 76 74 76 77 76 76 78 78 78 79 79 80 81 81 81 81 80 80 80 79 79 80 81 82 82 83 83 83 83 84 84 85 86 87 87 85 82 78 74 71 73 75 73 73 73 71 71 70 70 68 67 66 65 63 61 63 69 71 65 62 61 58 53 50 48 47
80 80 81 81 82 82 83 83 83 84 86 88 89 88 87 86 84 82 81 81 80 80 82 82 80 80 81 81 81 80 79 78 76 78 78 77 78 79 80 80 81 82 82 82 83 82 82 81 80 80 80 81 82 82 82 83 84 85 85 85 85 85 86 87 86 83 80 78 76 75 77 80 79 77 77 76 75 74 72 70 67 66 66 65 63 62 66 70 67 62 61 58 53 49 46 45 46
81 81 81 81 81 81 82 83 84 85 87 90 91 90 88 86 84 83 83 83 82 83 84 85 83 82 80 80 81 81 80 79 78 79 78 78 79 80 81 82 83 83 83 84 84 84 83 82 82 82 83 83 83 83 84 85 86 86 86 86 86 86 86 85 83 80 80 81 82 83 84 83 79 77 76 74 73 72 71 70 66 66 66 64 62 64 68 67 61 59 57 51 48 46 44 44 45
81 81 81 82 81 81 82 83 85 86 88 90 92 93 90 86 85 84 84 85 84 85 86 86 85 82 81 83 83 81 81 81 80 79 78 79 80 81 83 85 85 85 84 84 85 84 84 85 85 85 85 85 85 85 86 86 87 87 86 85 85 85 84 84 82 81 82 82 82 82 82 79 76 74 72 70 69 70 71 69 66 66 64 62 63 66 66 61 57 54 49 46 45 45 45 43 41
81 81 81 81 81 81 82 84 85 86 88 91 93 94 91 87 85 86 86 86 87 88 88 86 82 81 85 86 85 83 82 82 80 79 78 77 79 82 84 86 87 86 85 86 86 86 87 87 88 88 87 86 86 85 85 85 84 83 83 83 84 83 82 82 81 80 79 75 75 76 74 73 70 68 68 68 69 70 69 66 65 63 61 62 64 64 60 54 49 45 44 44 44 43 42 41 39
82 82 82 81 81 81 82 84 85 86 88 91 95 95 90 86 85 85 87 89 91 91 90 86 81 82 87 89 87 85 83 82 80 79 74 64 65 72 77 82 84 84 85 85 86 86 87 87 87 87 87 86 85 83 82 82 81 82 84 84 84 83 82 81 79 77 75 73 74 71 67 65 64 66 68 69 68 67 67 65 62 59 60 63 62 57 50 45 42 42 43 43 42 41 39 39 38
83 83 83 82 81 82 82 83 85 86 88 90 95 94 88 86 85 85 87 90 92 91 90 87 82 83 87 89 90 87 85 83 81 80 74 62 62 68 68 69 71 72 73 75 78 80 81 81 82 81 81 81 80 80 81 82 83 84 85 84 83 81 79 78 75 72 72 72 70 66 64 65 66 67 67 66 65 64 64 61 58 58 62 61 55 48 43 41 41 42 42 41 40 38 36 36 36
85 84 84 83 82 82 82 83 84 86 88 91 94 91 86 84 84 85 87 89 91 92 92 89 84 84 85 88 90 89 86 84 82 80 78 75 74 73 68 67 68 67 66 68 68 69 73 75 76 77 78 78 78 80 82 83 83 81 79 78 76 74 72 71 71 72 72 69 65 65 66 65 66 65 63 63 63 62 59 57 58 60 60 54 48 43 41 40 41 41 41 39 36 34 34 34 35
86 85 84 83 83 83 83 84 85 87 89 92 92 89 86 83 83 84 85 88 90 93 94 90 86 84 85 88 89 88 86 84 83 82 81 81 80 77 76 77 76 74 71 70 69 72 78 81 82 83 83 82 82 83 83 81 78 76 75 73 72 71 70 70 72 71 68 65 64 64 62 62 64 63 62 62 60 57 56 58 60 59 55 50 46 42 40 40 40 39 37 34 31 32 35 36 35
86 85 84 83 83 83 84 85 86 88 90 92 90 87 85 82 81 82 83 87 90 92 92 88 85 84 86 89 88 86 85 84 83 84 84 85 83 81 80 81 79 77 78 79 80 85 88 88 87 86 84 84 84 83 81 79 77 75 75 73 72 71 72 71 69 67 64 62 62 61 62 63 63 63 62 59 56 55 57 59 59 57 53 49 45 42 41 40 38 35 31 30 30 34 38 37 35
87 85 83 83 83 84 86 87 89 90 92 92 90 87 83 80 79 80 81 87 92 92 88 84 84 84 86 88 87 85 84 82 82 84 84 85 85 84 83 83 82 82 84 87 88 88 87 85 83 82 82 81 80 79 78 77 75 73 72 71 71 71 70 67 63 61 59 59 60 62 64 64 63 63 60 55 55 57 58 57 56 54 52 49 46 43 38 36 34 30 30 30 31 37 40 37 34
85 84 82 82 83 85 87 89 91 93 94 93 90 85 81 79 79 79 81 87 92 91 85 82 84 85 85 86 85 83 81 81 81 83 84 84 84 84 83 83 83 84 86 86 85 85 84 81 78 77 77 77 76 76 74 73 71 70 68 68 69 68 64 60 58 57 58 61 63 64 64 63 62 59 55 54 57 57 54 53 53 52 50 48 43 37 33 34 32 29 30 30 33 40 41 37 33
80 80 80 80 82 85 88 90 92 93 94 92 88 83 81 80 80 81 83 88 92 88 84 82 83 85 85 84 83 81 80 80 81 83 84 84 84 83 82 81 81 82 82 81 80 79 78 77 75 73 72 72 72 72 72 71 70 68 67 67 68 66 63 61 61 60 62 64 63 62 61 59 56 53 53 55 55 53 53 53 51 50 48 44 37 31 33 35 31 28 30 31 36 42 40 36 32
75 76 76 78 81 84 88 90 91 92 92 91 85 81 82 83 82 83 84 89 91 86 83 82 83 85 84 81 80 79 79 79 81 83 83 83 82 82 81 80 79 79 79 79 79 78 75 74 72 71 71 71 70 70 71 71 68 67 67 68 68 66 65 64 63 63 62 62 61 59 56 53 52 53 54 53 52 54 55 52 49 48 45 40 33 30 34 35 31 31 32 33 39 43 39 35 30
72 72 72 76 80 83 86 88 90 90 89 88 83 80 82 84 85 86 84 86 89 85 82 82 83 85 83 80 79 79 79 79 80 81 80 81 81 80 79 78 78 77 77 77 77 76 74 73 73 73 74 72 69 68 67 66 65 66 64 62 62 62 62 62 63 60 58 58 56 54 52 52 52 52 51 52 56 57 52 47 45 45 44 40 33 30 34 36 35 35 36 37 42 44 39 33 30
72 71 72 76 79 82 85 86 88 87 85 84 81 79 80 82 85 87 83 84 88 84 82 82 83 84 83 80 79 79 79 79 80 80 79 79 79 78 77 76 76 74 72 72 73 74 74 73 72 72 72 70 67 65 63 62 62 62 58 54 54 57 58 58 58 55 54 53 52 51 52 54 53 54 56 58 57 51 45 43 43 43 42 41 36 33 36 39 38 38 39 40 45 46 38 33 30
73 71 73 78 79 82 84 84 84 82 80 79 78 78 79 81 85 85 83 84 86 83 81 81 82 82 81 79 79 79 79 79 79 79 78 78 77 76 76 74 72 70 69 69 68 67 67 67 69 69 67 64 62 61 61 61 60 59 56 53 53 54 53 51 50 50 49 48 50 52 54 55 56 57 57 54 48 42 42 41 41 41 41 41 41 40 40 41 40 40 41 43 46 46 38 33 31
74 73 76 79 81 83 83 82 81 79 77 77 77 79 81 82 82 82 83 83 82 80 79 79 80 79 79 79 78 78 77 77 76 76 75 74 74 73 73 69 64 67 70 70 67 64 63 64 65 63 58 57 56 57 58 56 54 53 52 50 51 51 50 50 49 50 49 48 48 48 50 51 52 51 47 44 42 40 41 40 39 39 40 42 44 44 43 43 41 42 44 45 46 44 38 35 33
75 76 78 80 82 83 83 82 80 78 78 77 79 81 82 80 78 81 82 80 79 78 77 78 78 77 77 77 76 76 75 74 73 73 72 71 70 68 68 66 63 66 67 66 65 64 64 63 61 58 56 57 57 58 58 56 54 52 50 47 47 47 47 48 49 51 52 52 49 45 46 46 44 42 40 40 41 41 41 40 39 40 40 42 42 42 41 43 44 45 47 47 46 44 40 39 38
76 77 80 81 83 84 83 81 81 80 78 78 81 83 82 79 80 82 79 77 77 76 76 76 76 75 75 74 73 73 72 71 70 70 70 69 68 63 58 57 58 60 62 63 63 63 63 61 59 58 59 61 60 59 59 58 56 54 51 48 46 45 46 46 48 53 54 54 50 45 44 44 41 39 40 41 41 42 43 43 43 43 43 44 43 40 40 43 46 48 49 48 47 45 45 45 43
77 79 81 82 82 83 83 81 82 81 77 79 84 84 82 81 82 81 77 77 77 76 75 75 74 73 72 72 72 72 70 69 69 67 68 67 65 60 49 46 51 55 58 61 62 61 60 60 60 60 61 60 58 55 55 54 52 50 46 44 44 45 46 47 51 55 55 53 51 47 44 44 42 42 44 47 47 46 47 47 46 45 45 46 45 43 42 43 45 47 48 47 46 46 49 48 43
78 79 81 82 82 82 82 81 81 80 78 80 85 84 83 83 83 81 78 78 78 77 75 74 73 72 72 72 71 71 70 68 67 66 66 65 63 60 49 44 48 53 56 59 61 61 61 62 62 61 60 58 54 52 53 53 52 50 45 41 41 43 46 49 52 52 51 51 51 50 49 48 49 50 51 52 51 51 49 47 45 44 43 44 43 41 39 40 42 43 44 45 47 50 51 45 38
77 77 79 81 80 80 79 79 79 79 79 80 83 83 83 83 82 81 79 80 79 77 75 74 73 72 72 72 71 70 69 68 67 65 64 63 62 60 54 50 52 56 60 61 60 61 63 63 62 60 56 54 52 51 52 51 51 51 48 44 43 45 48 51 53 51 48 49 51 52 53 53 53 54 54 52 51 51 48 45 42 41 40 41 40 38 37 39 41 43 45 48 51 52 47 37 32
74 74 76 78 76 76 76 76 77 77 77 79 81 80 80 80 80 80 80 80 78 75 74 74 72 72 72 71 70 70 69 67 66 64 63 62 60 59 56 55 57 61 62 61 58 58 60 59 58 56 53 51 51 52 53 51 50 50 52 50 48 50 54 56 57 55 51 50 52 53 53 53 53 53 53 52 52 51 48 44 42 41 40 40 40 39 41 43 44 47 50 52 53 50 41 31 29
70 71 72 72 71 71 72 73 74 73 74 76 77 76 76 77 77 78 79 78 77 74 72 72 71 71 70 69 69 68 68 67 65 64 62 60 59 57 57 57 59 61 61 60 59 58 57 56 56 55 55 54 54 54 55 54 54 54 56 57 57 57 59 60 58 56 54 53 53 54 53 53 54 55 55 54 53 51 49 47 46 45 43 43 43 43 44 47 49 52 53 53 51 44 35 29 27
65 66 66 66 66 66 68 69 70 69 70 73 72 70 72 73 73 75 75 75 75 71 69 69 68 68 67 66 66 66 65 65 64 64 62 60 58 56 56 57 58 58 58 58 58 56 54 55 56 56 56 54 52 53 55 55 56 57 59 61 62 62 61 60 58 56 53 51 52 53 53 54 55 56 55 53 51 50 49 49 49 49 47 46 46 46 47 49 52 53 52 50 46 39 32 30 28
61 62 62 62 62 63 66 66 66 66 66 69 67 65 67 69 70 70 71 72 71 68 66 66 65 64 63 63 63 62 62 63 63 62 61 58 56 54 55 56 56 55 55 55 55 55 55 55 55 55 53 52 52 54 56 58 59 60 62 63 64 63 63 61 59 56 52 50 51 52 52 53 54 54 52 50 48 47 47 47 47 47 48 48 48 49 49 51 52 51 48 45 42 37 31 30 27
59 60 60 61 60 62 64 63 63 63 64 65 63 61 63 66 66 67 68 68 67 64 63 62 60 59 58 59 60 59 59 60 61 59 57 54 53 52 52 53 53 51 51 52 54 55 56 55 54 54 53 53 53 55 57 59 61 62 63 63 62 62 61 60 57 54 52 50 50 52 52 52 53 52 50 48 46 45 44 44 45 46 48 49 50 50 51 52 51 46 43 41 40 36 30 29 26
59 60 60 60 60 61 62 62 62 62 62 62 61 60 60 63 65 64 64 64 63 60 60 58 55 54 55 57 58 56 57 58 57 55 52 51 49 49 49 50 49 48 48 50 52 53 53 54 55 55 55 53 53 55 57 59 60 60 61 61 60 58 56 55 53 52 50 49 49 50 50 50 50 49 48 46 45 43 44 45 46 47 48 49 50 52 53 54 50 43 40 39 38 34 30 31 28
59 59 59 60 60 60 60 62 63 62 61 61 60 58 58 62 64 62 61 61 60 55 56 56 52 51 53 54 55 55 55 54 53 50 48 47 46 45 46 46 45 44 42 40 44 50 52 54 55 53 52 50 50 53 56 57 57 56 57 56 54 53 52 51 50 49 48 47 47 48 48 47 46 46 45 44 44 44 46 47 48 49 50 51 52 54 55 53 49 43 39 38 36 34 32 32 31
57 58 58 58 57 57 58 60 63 62 59 59 59 55 56 63 63 60 59 58 56 51 52 54 50 50 51 51 52 53 52 50 48 46 45 45 44 42 41 40 39 39 37 35 41 49 50 50 49 46 46 44 43 47 49 50 50 49 49 49 48 47 47 47 46 46 45 45 46 46 46 45 44 44 44 45 45 47 48 49 50 51 52 54 55 56 56 51 47 43 38 36 35 34 33 33 32
55 55 54 54 54 54 55 59 63 61 57 57 58 55 56 63 62 57 57 56 54 50 51 52 48 48 48 47 48 49 48 46 44 44 43 42 39 37 37 36 35 34 33 33 38 43 43 45 44 42 42 41 40 42 43 43 42 42 42 42 42 42 42 43 43 43 44 44 44 44 44 43 44 46 47 47 48 50 51 52 52 54 55 57 58 57 54 49 46 42 37 35 33 34 33 31 31
53 52 51 51 53 53 55 59 62 60 57 56 58 56 55 60 61 56 55 55 52 50 50 49 47 46 46 45 45 46 46 44 42 41 39 37 34 33 31 30 30 28 25 27 31 35 41 45 43 38 38 38 39 40 40 39 39 39 39 38 39 39 40 40 41 42 43 43 43 43 42 43 45 48 49 49 51 51 52 53 54 56 57 59 58 56 52 46 42 39 36 33 32 34 32 30 29
50 49 49 51 52 54 56 58 60 60 58 56 57 56 54 58 60 56 55 54 51 50 49 48 46 44 43 42 42 45 44 41 39 38 34 31 27 26 24 23 24 21 19 28 36 39 45 47 42 40 39 37 37 40 39 38 37 37 37 37 38 39 39 39 39 40 41 41 41 41 42 43 46 48 49 50 52 53 54 55 56 58 57 57 55 52 47 42 38 36 34 32 32 35 33 30 30
45 46 48 49 52 54 55 57 59 60 59 56 55 54 54 57 58 56 55 53 51 49 49 49 46 42 41 41 41 43 42 38 36 35 30 22 18 19 20 20 24 25 27 35 40 42 45 45 40 39 39 36 36 40 40 38 36 36 35 35 36 38 38 37 37 39 40 41 41 42 44 45 46 48 50 52 53 54 55 56 56 56 54 52 49 45 41 37 34 33 32 32 33 37 36 33 33
43 45 46 48 51 51 53 56 58 60 58 53 51 52 53 55 57 57 55 52 49 48 50 50 45 41 39 39 40 40 38 36 34 32 25 17 18 24 23 23 30 35 36 39 40 39 40 40 39 40 41 39 38 40 39 36 35 35 34 33 35 37 37 36 36 36 38 39 40 43 45 47 48 50 52 53 53 53 54 55 54 53 50 46 43 40 37 34 32 32 32 32 34 39 40 37 36
43 44 45 47 49 49 51 53 55 59 56 49 48 51 52 53 56 56 52 50 49 47 49 51 45 40 39 39 39 38 38 36 33 30 23 21 28 33 31 30 36 41 40 38 39 40 40 39 38 40 42 42 41 41 41 39 38 37 35 33 33 34 36 36 35 35 36 35 36 39 41 44 46 48 50 50 50 50 51 52 51 49 46 41 39 36 34 33 32 31 32 32 34 40 43 40 38
42 44 45 46 48 49 50 52 53 55 52 45 46 51 52 53 54 53 49 49 50 47 48 50 44 40 39 38 37 38 40 36 31 28 25 29 35 37 37 37 38 42 42 39 39 39 40 41 40 42 44 45 44 43 43 42 40 38 37 35 33 33 34 34 34 35 36 36 34 35 36 37 40 42 44 45 46 48 49 49 49 47 43 38 35 34 33 32 31 32 33 33 33 38 44 44 41
41 44 45 46 48 48 49 51 51 51 48 45 46 49 51 51 51 51 49 50 49 46 48 50 44 40 39 38 38 39 40 35 30 28 29 35 38 40 42 39 36 40 42 40 40 39 40 44 46 49 50 48 46 46 45 44 42 40 38 37 36 34 33 33 34 34 36 38 37 36 35 35 37 39 42 44 46 47 47 47 47 46 41 36 33 32 32 31 31 31 33 34 33 35 41 46 45
42 43 43 45 46 47 48 49 48 48 46 44 46 47 48 48 48 50 49 48 48 47 48 49 44 41 39 39 39 40 39 34 30 31 32 35 38 41 44 43 40 40 40 40 41 42 43 46 48 49 51 51 49 47 45 45 44 42 40 40 39 36 34 34 36 37 37 37 37 37 36 35 37 39 42 44 46 45 44 45 46 43 38 35 33 32 31 31 30 31 32 34 34 34 36 41 45
41 41 41 43 44 44 46 45 45 45 42 42 43 44 45 46 45 47 47 46 47 47 48 47 43 40 40 40 41 41 38 34 32 32 33 34 40 44 44 44 41 38 38 39 40 43 46 48 49 49 50 50 47 45 43 43 43 43 43 42 40 37 37 37 38 38 38 38 38 37 37 37 37 39 42 43 42 41 42 44 42 38 35 33 31 30 29 29 29 30 31 32 34 35 35 37 40
39 39 41 42 42 43 44 43 43 41 39 41 42 41 42 43 44 46 45 44 46 47 46 43 41 40 41 41 42 40 37 35 33 33 34 36 42 45 44 43 41 38 40 42 43 43 46 48 49 49 51 51 49 47 45 44 43 44 45 45 43 41 41 39 38 37 38 40 38 37 36 36 36 38 39 38 37 38 40 40 36 33 31 31 29 27 26 26 26 28 29 31 32 34 36 37 38
39 40 41 42 42 43 43 42 41 38 38 41 41 40 41 42 44 44 42 42 44 44 43 40 38 39 40 41 41 38 36 35 34 34 36 39 44 46 45 43 41 41 44 47 48 46 44 45 45 46 50 53 53 49 46 45 44 45 47 47 46 45 44 42 39 37 38 40 38 35 34 34 35 36 37 37 37 38 37 34 31 30 29 27 26 25 24 24 24 25 26 28 30 32 34 36 37
40 40 41 42 42 43 42 40 38 37 39 41 41 41 41 42 43 42 40 41 42 42 40 37 37 39 40 40 38 36 34 34 33 35 39 43 47 47 44 41 40 41 45 48 50 49 48 47 46 46 49 51 52 49 46 44 44 45 47 49 48 47 45 42 39 38 40 43 42 39 36 35 35 37 38 40 40 38 33 30 28 27 25 24 24 23 23 23 23 23 24 24 26 28 30 32 34
40 40 41 42 42 41 40 39 37 37 39 41 42 42 41 41 41 39 38 39 39 39 36 35 36 37 37 35 34 34 33 31 32 37 42 46 49 49 45 42 41 43 45 46 48 50 53 53 50 50 50 50 48 46 43 43 44 45 47 49 49 48 46 43 40 39 40 43 44 43 42 40 40 41 41 41 40 36 32 29 27 25 24 23 23 23 23 23 23 23 23 23 24 24 25 27 29
39 40 40 40 40 39 39 39 38 38 39 41 42 41 39 38 37 36 37 37 37 35 33 32 31 29 29 29 31 32 32 32 33 38 44 48 51 52 49 46 46 47 46 45 46 50 54 57 55 52 50 48 46 43 42 41 43 45 46 47 48 48 47 46 43 42 43 44 44 45 45 45 45 45 44 43 42 41 39 36 33 30 27 24 23 24 24 24 24 24 24 24 25 25 25 26 27
38 39 38 39 40 39 39 40 39 40 40 40 40 38 36 34 33 34 35 35 34 33 31 30 29 28 27 26 27 29 31 32 34 39 42 45 48 51 50 49 49 50 47 44 45 48 52 56 56 53 50 49 47 46 45 44 45 46 46 47 48 47 46 45 45 45 45 47 47 48 48 48 48 48 47 48 49 50 49 46 43 40 35 29 26 24 24 24 26 26 27 26 26 26 27 28 29
37 38 38 39 41 41 40 40 40 40 39 39 39 37 35 33 33 33 34 34 32 30 29 29 29 30 30 27 26 28 30 31 33 36 37 37 40 44 46 47 48 48 47 44 44 46 49 51 53 53 53 53 52 50 49 48 48 47 47 47 48 48 45 44 44 45 45 47 49 51 51 51 51 52 52 54 55 55 55 53 50 48 45 39 32 28 26 25 25 27 29 30 30 30 29 29 30
38 39 39 40 41 41 41 41 41 40 39 39 39 38 36 35 34 32 32 32 29 27 28 29 28 29 30 31 30 29 30 31 32 33 32 30 34 39 42 46 48 47 46 45 44 44 46 49 51 52 54 56 56 55 54 52 51 49 47 46 47 47 46 45 45 46 46 47 49 50 52 52 52 53 54 55 56 57 57 56 54 52 50 48 42 36 31 28 27 27 29 32 33 34 34 34 34
39 39 39 40 41 40 40 41 40 39 39 39 39 38 37 36 34 31 29 28 27 27 29 30 30 30 29 31 33 31 30 31 33 34 30 28 34 38 41 46 50 49 48 47 45 44 44 47 50 49 49 52 54 56 56 56 54 50 48 47 46 46 47 47 47 48 48 48 49 50 50 51 51 51 52 54 55 56 56 57 56 55 54 53 50 46 40 35 32 31 31 33 34 36 37 38 38
38 39 39 40 41 40 40 39 39 39 39 39 39 39 38 36 34 31 27 25 26 29 32 33 33 33 31 32 33 32 30 32 35 34 29 29 35 39 42 47 51 52 51 50 48 45 42 43 46 46 46 47 49 51 53 52 49 47 46 45 45 45 46 47 47 48 49 50 50 50 50 51 51 52 53 54 55 57 57 58 58 58 56 54 53 51 48 43 39 38 37 37 38 40 41 42 43
39 39 39 41 41 40 39 38 38 39 39 39 41 41 39 35 33 32 30 28 28 30 31 32 33 32 31 33 34 33 34 37 37 31 27 31 38 41 42 46 50 52 52 50 49 47 43 42 44 45 46 47 47 48 48 45 43 43 45 45 45 46 46 47 48 49 50 50 51 52 52 52 53 53 55 56 58 59 60 60 59 58 57 55 53 52 51 49 47 44 42 43 44 46 47 48 49
39 39 39 41 42 42 41 40 39 39 39 40 41 41 39 35 32 31 31 32 32 31 30 30 31 30 29 32 34 34 35 40 42 38 34 37 42 43 44 45 48 51 50 46 44 45 44 45 47 47 47 46 45 46 46 45 46 48 49 48 47 48 48 48 49 50 50 51 51 52 53 53 53 54 55 57 58 59 60 59 58 57 56 55 54 53 52 51 50 48 46 46 48 49 50 51 52
Wind_Direction
253 253 253 254 255 255 256 256 257 258 258 259 259 259 259 260 261 262 262 263 265 268 270 271 271 269 268 268 270 270 272 274 274 275 276 277 276 276 277 278 280 279 279 279 280 281 281 282 283 284 286 287 289 290 291 292 292 294 295 296 297 298 298 299 300 300 301 301 302 302 303 304 305 305 306 306 308 309 308 307 306 307 308 307 306 306 307 308 308 310 313 313 310 310 311 312 311
253 253 253 254 254 255 255 255 256 257 257 258 258 257 258 259 260 260 261 263 267 270 271 272 271 268 267 267 268 269 271 272 273 275 277 277 276 276 277 279 280 279 279 279 280 281 282 282 283 285 287 288 289 290 291 291 292 294 295 295 296 298 298 299 299 300 300 301 302 302 303 304 305 305 305 306 308 308 306 305 305 308 309 307 305 305 306 307 309 312 314 312 310 311 312 312 311
254 254 254 254 255 255 255 256 256 256 256 257 257 257 258 258 259 260 262 265 268 270 270 269 268 267 267 267 267 269 270 272 273 275 276 276 276 276 277 279 279 278 279 279 280 281 282 283 284 286 287 288 289 290 290 291 292 294 294 295 296 297 298 298 299 300 300 301 302 303 304 305 304 304 305 306 307 306 305 305 307 309 309 307 306 305 306 307 310 313 313 311 310 312 312 311 311
255 255 255 255 255 255 256 256 256 256 256 256 256 257 257 257 258 260 262 265 268 268 266 265 266 266 267 267 268 268 269 271 273 274 275 275 276 277 278 278 278 278 279 279 280 281 282 284 285 286 287 288 289 289 290 291 292 293 294 295 296 297 297 298 299 299 299 301 302 304 304 303 303 303 304 304 305 304 304 306 308 308 308 307 305 305 305 308 311 313 311 309 310 311 310 310 311
254 254 255 255 255 256 256 256 256 256 255 255 256 256 257 257 257 259 261 264 264 264 263 263 263 265 266 268 269 269 269 270 272 273 273 274 275 276 277 278 278 278 278 279 280 281 282 284 285 286 287 288 288 289 290 291 291 293 294 295 296 296 297 297 298 298 299 301 302 302 301 301 302 303 302 302 302 301 302 305 308 307 307 306 305 304 305 309 312 311 309 309 309 309 309 310 311
254 254 254 254 255 255 255 255 255 255 255 255 255 255 256 257 258 259 260 261 262 262 262 262 262 263 265 267 269 269 270 270 271 271 272 273 275 275 276 277 277 277 278 279 280 281 282 283 284 286 286 287 288 289 290 291 291 293 294 295 296 296 296 297 298 298 299 300 300 299 297 299 301 300 299 299 299 300 301 303 305 306 306 305 303 303 306 310 312 309 308 308 307 307 310 311 312
254 254 254 254 254 254 255 255 255 254 254 254 255 254 254 256 257 259 259 260 261 261 261 261 261 262 263 266 268 269 269 270 270 270 272 273 274 274 275 276 277 278 279 279 280 281 282 282 283 284 285 286 288 289 290 291 292 293 294 294 295 295 296 296 297 298 298 298 297 297 297 298 299 299 299 298 298 298 300 302 304 305 306 304 302 303 307 311 310 307 307 307 306 308 312 313 313
255 255 254 254 254 254 254 254 254 254 254 254 255 255 254 255 256 257 259 260 260 260 261 262 261 262 264 266 267 267 268 269 269 270 272 273 274 274 275 276 277 277 278 279 280 280 280 281 281 283 284 285 287 288 289 290 292 292 293 293 294 294 295 295 295 296 295 296 295 295 296 297 299 299 298 297 296 297 300 302 303 305 305 303 303 305 308 309 307 306 306 305 307 309 311 314 316
255 255 255 255 255 255 255 254 253 253 254 255 255 255 255 255 256 257 258 259 259 259 259 261 262 264 265 265 266 267 267 268 269 270 271 272 274 276 277 277 277 277 278 278 279 279 279 279 280 282 283 285 286 287 289 290 291 292 292 292 292 293 293 293 293 295 296 296 295 295 295 296 297 296 295 295 295 297 300 301 302 304 303 301 304 307 308 307 305 305 304 305 307 309 311 316 318
255 255 255 255 256 256 255 255 255 254 255 255 255 255 255 255 256 257 258 259 259 258 259 260 262 265 266 266 266 267 267 268 269 270 272 275 277 277 278 277 277 277 277 278 277 277 278 279 280 281 283 285 287 288 289 290 290 290 290 291 291 292 292 293 295 297 297 296 297 298 297 296 295 293 293 294 295 298 299 300 302 303 301 302 305 307 306 305 304 303 303 305 306 308 313 317 319
254 255 255 255 255 255 255 256 256 256 256 256 256 256 255 256 257 257 258 258 258 259 260 261 262 262 264 266 267 266 267 268 269 271 273 275 278 279 278 277 277 277 277 277 277 276 277 278 280 282 283 285 287 288 287 287 287 288 289 290 290 291 292 294 296 297 296 295 297 298 297 296 295 293 293 295 297 298 299 300 301 300 302 304 305 306 305 303 302 301 302 304 305 310 315 319 320
254 254 255 255 255 255 255 256 256 256 257 257 257 257 257 257 257 257 257 258 259 260 261 262 261 261 262 265 266 267 267 268 269 271 271 270 270 274 277 276 276 277 277 277 277 276 277 279 282 284 285 285 286 285 284 285 287 289 290 290 290 292 293 294 295 296 296 296 296 295 294 295 295 294 295 297 298 297 297 298 299 300 303 304 304 303 302 300 299 300 303 304 306 312 318 323 325
254 254 255 255 255 255 255 256 256 256 256 256 257 259 259 259 258 258 258 259 261 261 261 261 262 262 262 263 265 266 267 268 269 270 270 268 266 266 269 272 275 277 277 278 278 278 280 282 283 285 285 284 284 284 285 286 288 290 292 292 292 294 294 294 294 296 296 295 293 292 292 293 294 294 295 297 297 297 296 296 298 301 303 302 301 301 299 298 299 302 304 304 307 314 321 324 325
254 254 255 255 255 256 256 256 256 256 256 256 257 258 259 259 259 259 260 260 260 261 262 263 262 262 262 262 262 264 266 267 268 268 268 268 266 264 264 268 273 274 274 276 276 278 282 283 282 283 284 283 283 284 285 287 289 291 291 291 292 293 293 294 294 295 294 292 291 291 292 293 294 294 295 296 296 295 294 297 299 301 300 299 300 299 297 297 301 304 304 304 308 316 322 325 326
253 253 254 255 256 256 256 256 256 255 256 256 256 257 257 258 259 261 261 261 261 260 261 262 262 262 261 262 263 264 265 266 267 267 267 267 266 265 265 267 269 270 271 274 276 279 282 283 282 282 282 282 282 284 284 286 288 289 290 290 290 292 293 293 293 292 291 289 290 291 292 294 293 293 295 294 292 293 295 297 299 299 298 298 298 297 297 300 304 305 304 304 306 317 325 326 326
253 253 253 254 255 255 255 255 255 255 255 255 256 256 258 259 260 261 261 261 261 260 260 261 262 262 262 263 264 264 265 266 267 267 267 267 267 266 266 267 268 269 271 274 277 279 280 282 283 282 282 281 282 283 285 287 287 288 290 290 291 292 293 292 291 289 287 287 288 290 291 292 291 292 292 290 289 292 295 297 298 297 297 297 297 298 300 303 304 304 304 302 306 320 327 326 325
254 254 253 253 254 254 254 254 254 254 255 256 257 258 259 260 260 259 259 259 259 260 261 261 262 262 262 263 264 265 266 266 266 266 267 267 267 267 268 268 269 270 273 275 277 278 278 280 282 282 281 281 282 284 286 287 288 288 289 290 292 293 292 290 287 285 285 287 289 289 291 291 290 289 289 288 290 293 294 296 297 296 295 296 298 301 302 302 303 302 301 299 306 320 326 325 323
254 254 254 254 253 253 253 253 253 254 255 255 257 259 260 259 258 257 257 258 259 261 262 262 262 263 263 263 265 266 266 266 266 266 267 267 268 269 269 270 271 272 273 275 276 277 278 278 281 282 282 283 284 285 287 288 288 287 287 289 290 289 289 287 285 284 286 289 290 290 291 289 286 285 286 288 291 294 296 297 296 295 295 296 298 300 298 299 300 296 296 297 309 321 324 324 321
254 254 254 254 254 254 253 253 254 254 255 256 256 258 259 258 257 256 256 258 261 262 262 262 262 263 263 264 266 266 266 266 266 266 267 269 269 270 271 272 272 273 274 275 276 276 277 278 280 281 283 285 286 286 287 287 287 286 286 287 287 286 287 286 285 287 288 288 289 289 287 284 282 284 286 287 291 295 297 296 295 295 295 293 293 296 294 294 292 289 292 296 308 319 321 322 318
254 254 254 254 254 254 254 254 254 254 255 256 256 256 257 258 258 256 256 259 261 261 262 262 262 263 264 265 265 266 266 266 266 267 268 269 270 271 272 273 273 273 274 274 275 276 277 279 279 280 283 285 286 287 287 286 286 286 286 286 285 285 286 286 287 287 286 285 285 284 283 282 283 284 285 288 292 295 295 294 294 294 293 289 287 290 289 287 285 287 291 295 305 314 317 318 313
254 254 254 253 253 254 254 254 255 255 257 258 258 257 256 257 258 258 257 258 259 260 261 262 263 264 265 265 265 265 266 266 267 268 269 269 270 272 272 273 273 274 274 274 275 277 278 280 280 281 283 284 286 286 286 286 285 285 284 283 283 286 287 287 287 286 285 282 281 282 284 284 283 284 286 290 293 294 294 294 293 292 292 289 282 282 283 281 281 285 291 294 300 307 312 312 308
255 254 254 254 254 254 255 255 256 257 258 258 259 258 256 255 256 258 257 257 259 260 261 262 263 264 265 265 265 265 266 267 268 269 270 270 271 272 272 273 274 274 275 275 276 278 279 280 281 283 284 285 285 285 286 286 286 284 282 281 284 286 285 283 283 285 285 285 286 288 289 289 287 288 290 293 294 293 294 295 294 291 292 290 282 278 277 277 279 284 289 291 296 303 309 309 305
255 254 254 254 254 255 255 256 257 257 257 257 258 257 255 255 256 258 258 258 259 260 261 262 262 263 264 264 265 265 266 267 268 269 270 271 271 272 272 273 273 274 275 276 276 276 276 278 281 282 284 285 286 287 287 287 286 284 283 283 283 282 278 275 276 280 284 289 291 290 291 292 292 292 291 291 292 292 292 293 292 290 290 290 285 280 276 273 277 283 286 289 293 301 308 307 304
255 255 254 254 254 255 255 256 257 257 257 256 256 256 256 256 257 257 257 258 259 260 261 261 262 263 264 265 266 266 266 267 268 269 270 270 271 273 275 276 275 275 276 276 275 274 274 277 279 280 283 286 287 286 286 285 283 283 282 281 278 276 274 272 274 278 283 289 289 287 288 290 291 290 287 286 288 289 290 290 290 290 289 290 287 283 278 272 274 280 284 287 290 298 307 306 303
255 255 254 254 254 254 255 255 256 255 256 256 256 256 257 257 257 256 257 259 259 260 260 261 261 262 263 265 265 266 266 266 267 268 268 270 271 273 276 277 276 275 275 275 275 274 274 276 278 280 283 285 285 284 284 282 281 282 281 278 274 272 271 270 274 278 281 283 283 281 283 285 285 285 283 283 285 286 287 288 290 290 289 288 285 281 276 271 271 277 281 285 289 295 302 304 301
255 254 254 253 253 254 254 254 254 255 255 256 256 256 256 256 256 257 257 258 259 259 259 260 262 263 263 264 264 265 266 266 267 268 268 269 270 271 271 271 272 273 273 272 272 274 275 277 279 280 283 284 284 284 282 280 280 281 278 275 272 269 268 270 276 279 278 277 276 277 277 279 278 278 281 282 284 286 287 287 288 289 289 287 283 279 275 272 272 277 282 286 289 293 298 301 298
254 253 254 253 253 253 254 254 254 254 254 254 255 255 256 256 256 257 257 257 258 258 259 260 261 262 263 263 264 265 266 266 267 268 268 269 270 270 266 263 268 270 271 271 272 274 277 279 279 280 281 281 283 283 281 278 277 276 273 272 269 268 269 273 278 281 278 274 271 273 275 276 274 274 277 281 283 286 288 288 287 286 286 283 279 277 279 279 279 281 286 287 289 294 298 300 293
254 253 253 253 253 253 253 253 253 253 252 252 253 254 255 256 256 257 256 256 257 258 259 260 260 262 262 263 264 265 266 266 267 267 268 269 270 270 267 263 263 267 270 272 273 275 277 278 278 279 279 279 281 281 280 278 276 271 269 272 270 268 271 276 280 282 280 274 270 272 275 276 274 272 275 280 284 286 287 288 286 284 282 279 276 277 283 287 286 286 288 289 292 296 299 298 286
254 254 253 253 253 253 253 253 252 252 251 251 252 253 254 255 256 256 256 256 256 257 259 259 260 261 262 263 264 264 265 265 266 267 267 269 269 270 268 264 263 267 270 271 272 275 276 277 276 276 277 278 279 279 278 277 275 271 270 274 273 272 275 279 281 281 281 276 270 271 274 274 273 273 274 278 282 285 286 285 284 283 280 277 276 278 284 288 290 291 293 294 296 298 297 289 275
254 253 253 254 254 253 253 252 251 251 251 251 252 253 254 255 256 256 256 256 256 256 258 259 259 260 261 262 263 264 264 265 265 266 266 267 268 269 269 267 266 268 270 271 272 273 274 274 274 275 276 279 278 278 278 276 276 276 276 277 277 277 279 280 281 281 281 278 271 269 270 271 272 273 275 277 280 283 283 282 282 282 279 276 276 279 284 289 292 295 297 297 297 296 291 280 268
254 254 254 254 253 253 252 252 251 250 251 251 251 252 254 254 255 256 256 256 256 255 256 258 259 260 261 261 262 263 263 264 264 265 265 266 266 267 268 268 268 269 271 271 272 273 273 274 276 277 278 278 277 277 277 277 279 279 279 280 280 281 281 280 280 280 278 276 272 269 268 269 270 272 275 278 280 280 279 278 277 278 277 275 275 278 284 291 296 298 298 296 293 290 284 274 264
254 253 253 253 252 252 251 251 251 250 250 251 251 251 253 254 254 255 256 256 256 255 255 256 258 259 261 261 261 261 262 263 263 264 265 266 266 266 267 268 269 270 271 271 273 274 275 277 279 280 280 278 276 277 278 280 281 281 280 281 281 281 281 281 280 279 277 274 272 270 268 268 269 272 276 278 277 275 274 273 273 274 274 274 276 279 286 293 298 299 296 292 288 284 276 267 261
254 253 252 251 250 250 251 251 250 250 249 250 250 249 251 253 253 254 255 256 256 256 255 255 256 257 258 259 259 259 261 262 263 264 265 266 266 267 267 267 269 271 272 273 275 276 278 280 281 282 282 280 278 279 280 281 282 282 282 282 282 281 280 280 280 279 277 274 271 270 269 269 270 273 276 277 274 272 271 271 273 274 275 278 281 284 289 294 299 298 293 288 283 278 268 259 256
252 251 250 249 248 248 249 249 248 248 248 248 248 248 249 252 252 252 254 255 255 255 255 254 254 255 255 257 258 258 259 261 262 264 265 265 266 266 267 268 270 273 276 278 279 280 281 283 283 283 283 282 282 282 282 282 282 283 283 283 282 281 280 279 278 277 276 273 270 269 269 270 272 274 275 273 270 270 272 275 277 279 281 284 287 289 292 296 298 297 291 284 277 270 263 254 252
249 249 248 248 247 247 248 249 248 247 247 248 247 247 248 249 250 251 252 254 254 255 256 254 252 252 253 255 257 258 258 260 262 263 264 264 265 266 268 270 273 277 280 281 282 285 285 285 284 283 283 285 286 285 283 282 282 283 282 282 281 280 280 278 276 275 274 271 269 268 268 269 271 272 270 267 266 270 276 280 282 284 287 288 290 293 295 296 297 296 290 280 270 263 258 252 249
249 249 248 249 249 248 248 249 249 247 247 248 247 246 247 249 249 250 252 253 254 254 254 254 251 251 252 254 257 259 259 261 261 262 262 263 265 268 270 273 276 281 283 281 284 287 287 285 283 283 285 286 288 286 283 281 281 280 280 280 280 280 279 276 275 274 272 270 267 267 267 267 269 267 262 261 265 272 279 282 285 287 289 290 291 294 296 296 296 295 288 275 263 255 254 252 248
249 249 249 250 250 249 248 248 249 247 245 246 247 244 244 248 249 249 250 251 252 251 251 253 252 251 252 253 256 259 259 259 259 260 261 264 267 269 271 275 278 284 285 280 282 282 279 278 280 283 283 283 284 284 282 281 280 279 279 280 280 279 278 276 275 274 272 270 266 264 264 264 264 261 258 260 267 274 279 283 286 289 290 292 293 294 295 294 294 292 286 272 255 247 249 249 247
249 249 248 248 247 246 245 245 246 246 244 243 245 243 242 247 249 247 248 249 249 249 249 251 251 251 252 253 255 256 257 257 258 260 262 264 268 272 276 281 281 283 280 269 264 263 265 270 275 278 279 280 279 278 281 283 281 281 280 280 279 278 277 277 276 274 272 270 267 264 261 260 260 259 259 263 270 276 281 284 287 289 292 293 294 293 292 292 291 288 282 269 248 239 244 245 243
248 247 246 244 243 243 242 243 244 244 242 240 241 243 241 244 247 246 246 246 247 247 248 249 249 250 252 252 253 254 255 256 257 258 259 263 271 277 278 277 275 270 256 247 244 246 255 265 271 272 271 273 271 272 280 286 284 283 282 279 278 276 275 275 275 273 271 269 266 263 260 259 260 262 265 269 274 280 282 284 287 291 293 294 293 291 290 289 287 283 277 266 245 235 239 242 241
247 245 244 242 242 242 241 242 243 243 241 239 239 241 242 242 244 245 244 244 245 247 248 248 247 247 250 251 252 253 255 255 255 254 253 258 264 262 256 252 252 246 234 235 240 245 253 260 264 265 264 262 263 268 277 284 287 289 287 282 279 277 276 274 273 272 271 268 265 261 259 260 263 266 269 273 278 282 283 285 289 292 293 293 291 289 287 285 282 278 271 263 246 234 236 240 240
243 241 241 241 241 241 241 242 243 244 242 240 241 240 240 241 242 243 243 245 245 246 248 248 246 245 247 249 251 253 254 252 251 250 246 235 225 229 229 229 239 243 235 233 238 244 253 259 260 261 262 262 264 267 273 280 288 292 292 290 287 283 280 277 274 271 268 266 263 260 259 261 265 268 271 274 279 282 286 288 290 292 293 293 291 288 285 282 278 275 269 261 247 236 237 242 240
239 239 238 239 239 239 240 241 243 245 245 241 240 239 238 239 241 243 244 245 244 244 247 249 246 244 245 246 249 251 251 248 246 246 237 215 212 216 215 218 233 242 240 237 241 248 255 261 263 262 262 265 266 266 270 277 283 285 290 294 293 287 284 282 277 271 265 262 260 260 261 263 267 270 272 275 279 284 288 291 293 294 294 292 290 288 284 281 278 275 271 263 251 240 240 244 243
238 238 237 237 238 237 238 240 241 244 246 242 238 239 238 238 241 243 242 242 242 241 245 248 246 244 244 244 245 247 247 245 241 240 229 215 214 213 214 220 231 240 241 242 246 252 255 256 261 265 265 265 265 265 268 274 276 280 284 289 292 289 287 284 280 273 266 262 260 259 261 265 270 273 276 280 284 288 292 294 296 297 295 292 290 287 283 279 277 275 272 268 258 246 242 245 246
237 237 236 236 237 237 237 239 241 243 243 241 238 238 239 239 241 243 241 241 241 240 242 246 245 243 243 242 242 244 245 243 238 234 224 219 215 212 217 221 226 235 240 241 242 244 247 248 254 262 265 266 266 265 267 270 273 279 282 285 289 289 287 284 281 275 270 266 263 261 262 267 273 276 280 286 290 293 295 296 298 297 294 292 290 287 283 279 276 274 273 271 266 255 247 246 248
237 237 237 237 238 238 239 240 241 242 241 240 240 239 239 239 241 243 242 241 242 240 241 244 244 243 242 241 240 242 243 240 236 230 224 221 215 214 221 222 221 233 240 239 239 238 238 243 248 255 261 266 267 266 267 269 272 278 281 282 284 284 282 282 281 276 271 268 266 265 266 268 273 278 283 288 291 292 295 298 299 296 292 291 290 287 284 280 277 275 274 273 271 266 257 251 251
237 237 237 238 238 239 240 241 241 242 241 240 240 239 239 239 240 242 242 242 242 241 240 243 244 243 242 241 241 242 241 239 235 230 226 220 212 214 221 220 219 231 236 234 238 239 238 241 246 251 256 261 264 264 265 268 271 275 278 279 280 280 279 280 282 279 270 266 266 266 267 269 274 281 284 286 288 290 295 300 300 295 290 290 289 286 284 281 277 275 274 273 272 270 267 262 258
235 235 235 236 236 237 239 239 239 240 240 239 238 237 238 239 239 240 240 241 242 243 242 243 244 243 243 242 242 242 242 239 235 229 224 217 212 216 220 218 219 228 234 236 240 242 242 243 247 253 255 257 259 262 264 265 267 271 273 275 275 277 279 280 283 280 268 263 265 267 270 273 277 281 283 283 287 291 297 302 298 292 290 289 288 287 285 283 279 275 272 272 271 270 269 267 265
233 233 234 234 235 236 237 238 238 237 237 238 237 235 235 237 238 238 239 241 243 244 244 243 243 243 242 241 242 242 241 238 232 227 220 213 213 218 220 219 222 231 240 244 244 242 242 244 249 256 257 256 257 260 263 264 266 268 269 270 271 273 276 278 280 279 269 263 264 268 272 276 278 280 281 283 288 292 298 302 297 291 291 290 289 289 287 285 282 278 274 272 271 271 270 270 268
231 231 232 233 234 236 237 238 238 236 237 239 238 235 233 235 237 238 238 240 242 243 243 242 241 240 240 241 241 239 236 233 227 222 218 213 213 220 224 220 222 234 242 246 245 240 238 241 250 257 256 255 256 258 262 265 267 270 270 270 270 270 273 276 277 277 272 267 266 267 269 273 277 279 281 284 288 290 295 301 299 294 294 293 292 291 289 287 284 281 278 275 274 274 274 274 273
231 231 232 233 234 236 237 238 236 235 237 238 238 236 234 235 238 239 239 241 242 242 242 242 242 243 243 242 239 234 230 224 219 217 215 214 216 221 225 221 221 231 240 244 245 241 238 241 251 257 256 255 257 259 262 267 269 272 273 273 271 269 270 272 273 273 271 269 267 267 268 270 275 278 280 282 285 287 289 294 297 297 297 295 293 291 289 288 287 285 284 281 278 276 276 276 276
231 231 232 233 235 235 236 236 234 234 235 237 239 239 237 237 239 239 238 240 241 241 241 239 240 241 239 236 233 229 225 220 214 212 213 216 220 223 227 227 226 230 238 245 246 243 242 243 249 255 255 254 256 257 261 266 270 272 274 275 274 272 271 271 270 268 267 266 265 266 267 269 273 276 278 279 282 284 285 286 288 291 295 295 291 288 287 286 286 286 285 283 282 280 279 278 277
232 232 231 233 234 234 235 235 234 234 235 237 240 240 239 239 239 238 238 239 240 240 240 237 234 231 227 225 225 223 222 218 213 211 213 217 222 224 228 232 232 233 238 243 243 243 244 242 244 250 254 255 257 257 260 265 268 271 275 276 276 275 273 272 271 269 266 263 263 263 265 267 270 272 274 276 278 280 282 282 282 283 286 290 289 286 285 285 284 284 283 281 280 280 281 280 280
230 231 230 230 231 231 232 233 233 234 235 237 239 239 238 236 235 237 237 237 238 238 239 236 232 229 224 219 217 214 213 211 208 208 212 220 226 228 230 232 233 236 240 242 241 243 243 240 241 246 254 260 261 259 262 266 268 270 275 277 277 274 270 268 268 267 265 263 263 265 266 268 270 271 272 274 275 276 277 278 278 278 280 283 284 281 282 283 284 286 285 282 279 278 280 281 281
227 229 228 229 231 232 232 232 232 233 234 236 237 237 236 234 232 235 237 237 235 233 235 234 230 227 223 218 216 211 207 206 205 204 206 220 233 237 237 236 235 239 242 241 241 241 241 240 241 247 255 262 263 260 262 266 268 269 272 275 276 273 268 264 263 262 262 264 266 268 270 271 272 272 271 272 272 273 274 274 274 274 276 279 280 280 279 279 281 285 286 285 282 279 279 281 282
227 228 228 228 229 231 232 234 233 233 233 235 236 236 235 234 232 232 235 237 235 230 229 230 228 224 220 218 218 216 212 208 204 202 205 223 238 242 244 241 238 239 241 240 239 240 240 240 242 247 254 259 262 262 262 265 268 269 269 272 275 273 268 265 264 263 264 265 267 269 271 273 273 272 271 270 270 270 271 271 272 272 274 275 277 279 280 279 279 282 284 285 285 283 282 283 285
227 227 227 228 229 229 231 233 234 234 234 233 234 234 233 233 232 229 228 232 235 233 228 227 227 225 220 217 217 216 213 208 205 207 215 229 238 241 243 242 238 237 239 239 239 240 240 241 242 246 252 256 260 262 263 266 269 268 267 270 272 272 270 269 269 269 269 270 270 271 272 272 272 271 270 269 268 268 268 269 270 272 273 274 274 276 278 279 279 280 281 283 285 286 286 287 288
226 225 226 227 228 228 228 229 231 233 233 233 234 234 232 232 232 229 225 224 230 234 231 229 229 226 221 217 216 216 212 206 206 212 219 224 231 235 237 238 237 235 237 239 240 239 239 240 241 244 251 256 258 259 259 263 268 270 270 271 273 274 273 273 274 274 274 273 273 273 272 271 271 271 270 268 267 268 269 270 271 271 272 273 273 272 274 277 279 280 280 282 284 286 287 288 290
226 225 226 227 227 227 227 227 228 230 231 233 235 236 232 230 230 229 227 225 228 233 232 228 227 225 219 215 215 217 215 210 209 212 215 221 228 232 234 235 234 232 234 239 242 240 240 240 239 242 249 255 258 257 256 258 263 268 273 276 277 279 278 278 279 279 278 276 275 274 273 272 272 271 270 270 270 271 271 271 272 272 272 272 273 273 273 274 277 278 279 281 283 285 286 286 288